Miscellaneous Local Product
Issued by NWS Hastings, NE

Home | Current Version | Previous Version | Text Only | Print | Product List | Glossary Off
Versions: 1 2 3 4 5 6 7 8 9 10 11 12 13 14 15 16 17 18 19 20 21 22 23 24 25 26 27 28 29 30 31 32 33 34 35 36 37 38 39 40 41 42 43 44 45 46 47 48 49 50

000
AXUS43 KGID 230102
MISGRI

GID CWA HOURLY WEATHER ROUNDUP
NATIONAL WEATHER SERVICE HASTINGS NE
700 PM CST THU FEB 22 2018

NOTE: "FAIR" INDICATES FEW OR NO CLOUDS BELOW 12,000 FEET WITH NO
SIGNIFICANT WEATHER AND/OR OBSTRUCTIONS TO VISIBILITY.

...SOUTH CENTRAL NEBRASKA...

CITY           SKY/WX    TMP DP  RH WIND       PRES   REMARKS
GRAND ISLAND   CLOUDY    26  24  92 CALM      30.15R FOG
KEARNEY        MIX PCPN  25  23  92 W7        30.14R FOG     WCI  17
HASTINGS       CLOUDY    25  24  96 W3        30.14R FOG
ORD            CLOUDY    23  20  88 CALM      30.13R
YORK           LGT SNOW  27  27 100 CALM      30.16S
AURORA         LGT SNOW  26  25  94 CALM      30.15S
LEXINGTON      CLOUDY    25  22  88 SW5       30.12R WCI  19
HOLDREGE       CLOUDY    25  25 100 CALM      30.13R FOG
HEBRON         MIX PCPN  31  30  96 CALM      30.17S

...NEBRASKA PANHANDLE...

CITY           SKY/WX    TMP DP  RH WIND       PRES   REMARKS
CHADRON        MOCLDY    14  11  87 CALM      30.05R
ALLIANCE       CLOUDY    19  17  92 S8        30.01R WCI   9
SCOTTSBLUFF    MOCLDY    20  16  84 SE6       30.02R WCI  12
SIDNEY         MOCLDY    18  13  80 W6        30.02R WCI  10

...WESTERN AND NORTH CENTRAL NEBRASKA...

CITY           SKY/WX    TMP DP  RH WIND       PRES   REMARKS
VALENTINE      CLOUDY    24  18  77 S7        30.08S WCI  16
AINSWORTH      CLOUDY    22  21  98 S6        30.09S WCI  14
ONEILL         LGT SNOW  22  22  98 S3        30.15R
BROKEN BOW     CLOUDY    23  19  85 CALM      30.10S
IMPERIAL       CLOUDY    23  18  81 E5        30.06R WCI  17
NORTH PLATTE   CLOUDY    23  16  74 CALM      30.10S
MCCOOK         CLOUDY    24  23  96 CALM      30.11R

...EASTERN NEBRASKA...

CITY           SKY/WX    TMP DP  RH WIND       PRES   REMARKS
NORFOLK        LGT SNOW  25  24  96 CALM      30.15S FOG
SO SIOUX CITY  LGT SNOW  27  26  96 SW6       30.20R FOG     WCI  20
TEKAMAH        FRZ RAIN  29  28  96 S3        30.19R FOG
COLUMBUS       LGT SNOW  26  23  88 CALM      30.19R FOG
ALBION         CLOUDY    25  23  92 CALM      30.15S
OMAHA EPPLEY   CLOUDY    31  28  89 CALM      30.19R
OFFUTT AFB     FRZ DRZL  31  29  93 S7        30.19R WCI  25
MILLARD        MIX PCPN  32  30  93 SW5       30.20R WCI  27
LINCOLN        FRZ RAIN  30  29  96 S6        30.21R FOG     WCI  24
NEBRASKA CITY  CLOUDY    31  31 100 S7        30.19R FOG     WCI  24
BEATRICE       LGT SNOW  32  31  96 S5        30.19R WCI  27
FALLS CITY     CLOUDY    31  30  96 SE6       30.18S FOG     WCI  25

...NORTHERN KANSAS...

CITY           SKY/WX    TMP DP  RH WIND       PRES   REMARKS
GOODLAND       PTCLDY    23  18  81 NE8       30.00R WCI  14
HILL CITY      CLOUDY    26  25  96 CALM      30.13R FOG
NORTON         CLOUDY    25  21  86 CALM      30.12S FOG
PHILLIPSBURG   CLOUDY    27  27 100 CALM      30.16R FOG
SMITH CENTER   CLOUDY    27  25  93 CALM      30.16R FOG
BELOIT         CLOUDY    28  28 100 CALM      30.16S FOG
HAYS           MIX PCPN  29  28  96 CALM      30.13R FOG
RUSSELL        CLOUDY    31  30  96 CALM      30.11F FOG
CONCORDIA      CLOUDY    30  30 100 S5        30.15F FOG     WCI  25
SALINA         CLOUDY    32  32 100 SE3       30.17S FOG
TOPEKA         LGT RAIN  33  33 100 CALM      30.18S FOG



USA.gov is the U.S. government's official web portal to all federal, state and local government web resources and services.